STARLINK-37307, 68681

Orbit data source: Space-Track

STARLINK-37307, 68681 is a payload satellite owned by SpaceX/Seattle (US) in SSO that was launched on Sat, 11 Apr 2026 UTC via an FALCON 9 launch vehicle from the Air Force Western Test Range (AFWTR). Payload-class satellites include a variety of spacecraft equipped with specific instruments for various scientific and technological missions. These include communications satellites like Starlink; space stations such as the ISS; scientific satellites like the Hubble; Earth observation satellites from companies like Planet Labs, Umbra, and HawkEye 360; GPS; miniature CubeSats for education and research; and military/defense satellites.

Loading next visibility...
Identifier
68681, 2026-077V
Orbit
SSO
Country
Flag of USUS
Related business
Manufacturer
SpaceX/Seattle
Mission
Operational spacecraft
Bus & Motor
STARLINK V2MO, Unknown motor
Mass
575 kg wet, ~530 kg dry
Launch date (UTC)
2026-04-11 (2 months ago)
Launch vehicle
FALCON 9
Launch site
Air Force Western Test Range (AFWTR)
Object type
Payload
Rocket body
Debris
Shape & HBR
Unknown shape, 14.5 m
Radar Cross Section
Large (>1 m²)

Expand to show TLE details & history
Last TLE update: 15 hours ago

TLE from 15 hours ago
0 STARLINK-37307
1 68681U 26077V   26171.21466564  .00018034  00000-0  55945-3 0  9999
2 68681  97.2866  42.4695 0001374  94.2138 265.9262 15.33452732 10874
Epoch: 2026-06-20T05:09Z
TLE epoch observation values (Epoch: 2026-06-20T05:09:07.111Z)
Latitude
0.00001°
Longitude
56.75737°
Altitude
468.699 km
Speed
7.632 km/s
True Right ascension
02h 49m 52s
True Declination
0° 00' 00"
Sunlit
Object was in daylight at epoch
Visualization orbit readout
Latitude
Unknown
Longitude
Unknown
Altitude
Unknown
Speed
Unknown
Apparent Right ascension
Unknown
Apparent Declination
Unknown
Sunlit
N/A
Visualization observer readout
Local Sidereal Time
07:16:27
Azimuth
Unknown
Elevation
Unknown
Doppler factor
Unknown
Orbital elements
Apogee altitude
463.403 km
Perigee altitude
461.523 km
Semi-major axis
6,840.6 km
Eccentricity
0.00014
Inclination
97.2866°
RAAN
42.4695°
Arg. of periapsis
94.2138°
True anomaly
265.9105°
Mean anomaly
265.9262°
Eccentric anomaly
265.91835°
Mean motion
3.83621 °/min
Orbital period
93.84 mins
BSTAR
0.00055945
Loading maneuver chart data...
Computing Atmospheric mass density...
Loading historical data...
Loading historical data...
Loading historical data...
Loading historical data...
Loading historical data...
Loading historical data...
Loading historical data...

Documentation

Showing up to 5 results
|